When you browse on this site, cookies collect data to enhance your experience and personalize the content and advertising you see.
Visit our Privacy Policy to learn more. By continuing to use the site, you agree to this use of cookies and data.
  • en Suisse
  • Liste des pays
  • À 7 jours
  • Température de l'eau
  • Carte météo
  • Widgets météo
  • user-avatar
    Se connecter

    Météo par heure à Poitiers

    Ce jour, 14 Novembre, Jeudi

    Heure Température Précipitation Vent Pression Humidité
    00:00 +5°C° 0 mm 5 m/s 737 mmHg 90%
    01:00 +4°C° 0.5 mm 4 m/s 737 mmHg 91%
    02:00 +4°C° 0.5 mm 4 m/s 737 mmHg 92%
    03:00 +4°C° 0.5 mm 3 m/s 737 mmHg 93%
    04:00 +4°C° 0 mm 4 m/s 737 mmHg 93%
    05:00 +4°C° 0 mm 4 m/s 737 mmHg 92%
    06:00 +3°C° 0 mm 3 m/s 738 mmHg 93%
    07:00 +4°C° 0 mm 4 m/s 738 mmHg 90%
    08:00 +4°C° 0 mm 4 m/s 738 mmHg 87%
    09:00 +5°C° 0 mm 4 m/s 739 mmHg 84%
    10:00 +6°C° 0 mm 4 m/s 739 mmHg 78%
    11:00 +8°C° 0 mm 3 m/s 738 mmHg 71%
    12:00 +9°C° 0 mm 3 m/s 738 mmHg 65%
    13:00 +9°C° 0.1 mm 2 m/s 738 mmHg 65%
    14:00 +9°C° 0.1 mm 2 m/s 738 mmHg 65%
    15:00 +10°C° 0.1 mm 1 m/s 738 mmHg 65%
    16:00 +9°C° 0.1 mm 1 m/s 738 mmHg 72%
    17:00 +6°C° 0.1 mm 2 m/s 738 mmHg 79%
    18:00 +5°C° 0.1 mm 2 m/s 738 mmHg 85%
    19:00 +5°C° 0 mm 2 m/s 738 mmHg 87%
    20:00 +5°C° 0 mm 1 m/s 738 mmHg 89%
    21:00 +5°C° 0 mm 1 m/s 738 mmHg 90%
    22:00 +5°C° 0 mm 1 m/s 738 mmHg 91%
    23:00 +4°C° 0 mm 1 m/s 738 mmHg 92%

    Demain, 15 Novembre, Vendredi

    Heure Température Précipitation Vent Pression Humidité
    00:00 +3°C° 0 mm 2 m/s 738 mmHg 93%
    01:00 +3°C° 0 mm 2 m/s 738 mmHg 93%
    02:00 +3°C° 0 mm 2 m/s 738 mmHg 93%
    03:00 +3°C° 0 mm 2 m/s 738 mmHg 94%
    04:00 +3°C° 0 mm 2 m/s 739 mmHg 94%
    05:00 +3°C° 0 mm 1 m/s 739 mmHg 95%
    06:00 +3°C° 0 mm 1 m/s 739 mmHg 95%
    07:00 +3°C° 0 mm 2 m/s 740 mmHg 94%
    08:00 +3°C° 0 mm 2 m/s 740 mmHg 93%
    09:00 +4°C° 0 mm 2 m/s 741 mmHg 92%
    10:00 +5°C° 0 mm 2 m/s 741 mmHg 88%
    11:00 +6°C° 0 mm 2 m/s 741 mmHg 84%
    12:00 +7°C° 0 mm 2 m/s 741 mmHg 80%
    13:00 +7°C° 0 mm 2 m/s 741 mmHg 78%
    14:00 +7°C° 0 mm 2 m/s 741 mmHg 76%
    15:00 +7°C° 0 mm 2 m/s 741 mmHg 74%
    16:00 +6°C° 0 mm 2 m/s 741 mmHg 77%
    17:00 +5°C° 0 mm 2 m/s 741 mmHg 81%
    18:00 +4°C° 0 mm 2 m/s 742 mmHg 85%
    19:00 +3°C° 0 mm 3 m/s 742 mmHg 86%
    20:00 +3°C° 0 mm 3 m/s 742 mmHg 87%
    21:00 +3°C° 0 mm 3 m/s 743 mmHg 88%
    22:00 +1°C° 0 mm 4 m/s 743 mmHg 89%
    23:00 +1°C° 0 mm 4 m/s 743 mmHg 90%

    Après-demain, 16 Novembre, Samedi

    Heure Température Précipitation Vent Pression Humidité
    00:00 +1°C° 0 mm 4 m/s 743 mmHg 92%
    01:00 +3°C° 0 mm 4 m/s 743 mmHg 90%
    02:00 +2°C° 0 mm 5 m/s 743 mmHg 89%
    03:00 +2°C° 0 mm 6 m/s 743 mmHg 88%
    04:00 +2°C° 0.3 mm 6 m/s 743 mmHg 88%
    05:00 +3°C° 0.3 mm 6 m/s 743 mmHg 88%
    06:00 +3°C° 0.3 mm 7 m/s 743 mmHg 89%
    07:00 +3°C° 1 mm 7 m/s 744 mmHg 90%
    08:00 +3°C° 1 mm 7 m/s 744 mmHg 91%
    09:00 +3°C° 1 mm 7 m/s 744 mmHg 91%
    10:00 +3°C° 1.3 mm 6 m/s 744 mmHg 91%
    11:00 +4°C° 1.3 mm 6 m/s 745 mmHg 91%
    12:00 +4°C° 1.3 mm 6 m/s 745 mmHg 90%
    13:00 +5°C° 1.3 mm 5 m/s 745 mmHg 91%
    14:00 +5°C° 1.3 mm 5 m/s 745 mmHg 91%
    15:00 +5°C° 1.3 mm 4 m/s 745 mmHg 92%
    16:00 +5°C° 0.6 mm 3 m/s 745 mmHg 93%
    17:00 +5°C° 0.6 mm 3 m/s 745 mmHg 94%
    18:00 +6°C° 0.6 mm 2 m/s 746 mmHg 94%
    19:00 +5°C° 0 mm 2 m/s 746 mmHg 95%
    20:00 +5°C° 0 mm 2 m/s 746 mmHg 95%
    21:00 +4°C° 0 mm 2 m/s 747 mmHg 95%
    22:00 +5°C° 0 mm 1 m/s 747 mmHg 95%
    23:00 +5°C° 0 mm 1 m/s 747 mmHg 95%

    17 Novembre, Dimanche

    Heure Température Précipitation Vent Pression Humidité
    00:00 +5°C° 0 mm 1 m/s 747 mmHg 95%
    01:00 +5°C° 0 mm 1 m/s 747 mmHg 94%
    02:00 +5°C° 0 mm 1 m/s 746 mmHg 94%
    03:00 +4°C° 0 mm 0 m/s 746 mmHg 94%
    04:00 +3°C° 0 mm 0 m/s 746 mmHg 94%
    05:00 +3°C° 0 mm 0 m/s 746 mmHg 94%
    06:00 +3°C° 0 mm 0 m/s 746 mmHg 95%
    07:00 +3°C° 0 mm 0 m/s 746 mmHg 93%
    08:00 +4°C° 0 mm 0 m/s 746 mmHg 91%
    09:00 +4°C° 0 mm 0 m/s 747 mmHg 89%
    10:00 +5°C° 0 mm 0 m/s 746 mmHg 86%
    11:00 +7°C° 0 mm 1 m/s 746 mmHg 82%
    12:00 +8°C° 0 mm 1 m/s 746 mmHg 79%
    13:00 +8°C° 0 mm 1 m/s 746 mmHg 78%
    14:00 +8°C° 0 mm 1 m/s 746 mmHg 77%
    15:00 +8°C° 0 mm 1 m/s 746 mmHg 77%
    16:00 +7°C° 0 mm 1 m/s 746 mmHg 80%
    17:00 +6°C° 0 mm 1 m/s 746 mmHg 84%
    18:00 +5°C° 0 mm 1 m/s 746 mmHg 87%
    19:00 +5°C° 0 mm 1 m/s 747 mmHg 89%
    20:00 +4°C° 0 mm 1 m/s 747 mmHg 90%
    21:00 +4°C° 0 mm 1 m/s 747 mmHg 91%
    22:00 +3°C° 0 mm 1 m/s 747 mmHg 91%
    23:00 +3°C° 0 mm 1 m/s 747 mmHg 92%

    18 Novembre, Lundi

    Heure Température Précipitation Vent Pression Humidité
    00:00 +3°C° 0 mm 1 m/s 748 mmHg 92%
    01:00 +2°C° 0 mm 1 m/s 747 mmHg 92%
    02:00 +2°C° 0 mm 1 m/s 747 mmHg 93%
    03:00 +2°C° 0 mm 1 m/s 747 mmHg 93%
    04:00 +2°C° 0 mm 1 m/s 748 mmHg 93%
    05:00 +2°C° 0 mm 1 m/s 748 mmHg 93%
    06:00 +1°C° 0 mm 1 m/s 748 mmHg 93%
    07:00 +2°C° 0 mm 1 m/s 748 mmHg 90%
    08:00 +3°C° 0 mm 1 m/s 749 mmHg 87%
    09:00 +4°C° 0 mm 1 m/s 749 mmHg 85%
    10:00 +5°C° 0 mm 2 m/s 749 mmHg 79%
    11:00 +6°C° 0 mm 2 m/s 749 mmHg 73%
    12:00 +8°C° 0 mm 3 m/s 749 mmHg 68%
    13:00 +8°C° 0 mm 3 m/s 749 mmHg 70%
    14:00 +8°C° 0 mm 3 m/s 749 mmHg 72%
    15:00 +8°C° 0 mm 3 m/s 749 mmHg 74%
    16:00 +5°C° 0 mm 3 m/s 749 mmHg 80%
    17:00 +4°C° 0 mm 3 m/s 749 mmHg 85%
    18:00 +3°C° 0 mm 3 m/s 750 mmHg 91%
    19:00 +3°C° 0 mm 3 m/s 750 mmHg 91%
    20:00 +3°C° 0 mm 3 m/s 750 mmHg 91%
    21:00 +2°C° 0 mm 3 m/s 750 mmHg 91%
    22:00 +3°C° 0 mm 3 m/s 751 mmHg 91%
    23:00 +3°C° 0 mm 3 m/s 751 mmHg 91%

    19 Novembre, Mardi

    Heure Température Précipitation Vent Pression Humidité
    00:00 +3°C° 0 mm 3 m/s 751 mmHg 91%
    01:00 +3°C° 0 mm 3 m/s 751 mmHg 92%
    02:00 +2°C° 0 mm 3 m/s 750 mmHg 93%
    03:00 +2°C° 0 mm 3 m/s 750 mmHg 95%
    04:00 +3°C° 0 mm 3 m/s 750 mmHg 93%
    05:00 +3°C° 0 mm 4 m/s 750 mmHg 92%
    06:00 +3°C° 0 mm 4 m/s 750 mmHg 91%
    07:00 +4°C° 0 mm 4 m/s 750 mmHg 89%
    08:00 +3°C° 0 mm 5 m/s 750 mmHg 87%
    09:00 +3°C° 0 mm 5 m/s 750 mmHg 86%
    10:00 +5°C° 0 mm 5 m/s 750 mmHg 83%
    11:00 +6°C° 0 mm 5 m/s 749 mmHg 80%
    12:00 +7°C° 0 mm 5 m/s 749 mmHg 77%
    13:00 +7°C° 0 mm 5 m/s 749 mmHg 75%
    14:00 +8°C° 0 mm 5 m/s 748 mmHg 73%
    15:00 +8°C° 0 mm 5 m/s 748 mmHg 71%
    16:00 +7°C° 0 mm 5 m/s 748 mmHg 75%
    17:00 +6°C° 0 mm 4 m/s 747 mmHg 79%
    18:00 +5°C° 0 mm 4 m/s 747 mmHg 83%
    19:00 +5°C° 0 mm 5 m/s 747 mmHg 80%
    20:00 +6°C° 0 mm 5 m/s 747 mmHg 77%
    21:00 +5°C° 0 mm 6 m/s 747 mmHg 73%
    22:00 +5°C° 0.1 mm 6 m/s 746 mmHg 75%
    23:00 +5°C° 0.1 mm 6 m/s 746 mmHg 76%
    Voir plus